| time (UTC) | temp F | wind direction | speed MPH | gust MPH | rain 1hr in | rain 24hr in | rain mn in | humidity % | barometer mb |
| 20260503032503 | 51 | 308 | 0.0 | 1.0 | 0.00 | 0.00 | 0.00 | 1 | 1012.6 |
| 20260503032002 | 51 | 259 | 0.0 | 4.0 | 0.00 | 0.00 | 0.00 | 1 | 1012.6 |
| 20260503031601 | 51 | 314 | 0.0 | 4.0 | 0.00 | 0.00 | 0.00 | 1 | 1012.6 |
| 20260503031059 | 51 | 27 | 0.0 | 1.0 | 0.00 | 0.00 | 0.00 | 1 | 1012.6 |
| 20260503030558 | 52 | 297 | 0.0 | 1.0 | 0.00 | 0.00 | 0.00 | 1 | 1012.6 |
| 20260503030056 | 52 | 74 | 0.0 | 1.0 | 0.00 | 0.00 | 0.00 | 1 | 1012.6 |
| 20260503025555 | 52 | 346 | 0.0 | 1.0 | 0.00 | 0.00 | 0.00 | 1 | 1012.5 |
| 20260503025053 | 52 | 100 | 0.0 | 2.0 | 0.00 | 0.00 | 0.00 | 1 | 1012.5 |
| 20260503024553 | 52 | 141 | 0.0 | 2.0 | 0.00 | 0.00 | 0.00 | 1 | 1012.5 |
| 20260503024033 | 52 | 278 | 0.0 | 2.0 | 0.00 | 0.00 | 0.00 | 1 | 1012.5 |
| 20260503023531 | 52 | 94 | 0.0 | 2.0 | 0.00 | 0.00 | 0.00 | 1 | 1012.5 |
| 20260503023032 | 52 | 359 | 0.0 | 2.0 | 0.00 | 0.00 | 0.00 | 1 | 1012.5 |
| 20260503022528 | 52 | 287 | 0.0 | 4.0 | 0.00 | 0.00 | 0.00 | 1 | 1012.3 |
| 20260503022027 | 52 | 23 | 0.0 | 4.0 | 0.00 | 0.00 | 0.00 | 1 | 1012.3 |
| 20260503021526 | 52 | 305 | 0.0 | 3.0 | 0.00 | 0.00 | 0.00 | 1 | 1012.3 |
| 20260503021007 | 53 | 278 | 0.0 | 6.0 | 0.00 | 0.00 | 0.00 | 1 | 1012.2 |
| 20260503020506 | 53 | 280 | 1.0 | 6.0 | 0.00 | 0.00 | 0.00 | 1 | 1012.2 |
| 20260503020004 | 53 | 266 | 0.0 | 2.0 | 0.00 | 0.00 | 0.00 | 1 | 1012.2 |
| 20260503015503 | 53 | 271 | 0.0 | 2.0 | 0.00 | 0.00 | 0.00 | 1 | 1012.3 |
| 20260503015001 | 53 | 38 | 0.0 | 5.0 | 0.00 | 0.00 | 0.00 | 1 | 1012.3 |
| 20260503014620 | 52 | 285 | 0.0 | 5.0 | 0.00 | 0.00 | 0.00 | 1 | 1012.4 |
| 20260503014042 | 53 | 300 | 0.0 | 4.0 | 0.00 | 0.00 | 0.00 | 1 | 1012.4 |
| 20260503013540 | 53 | 309 | 1.0 | 5.0 | 0.00 | 0.00 | 0.00 | 1 | 1012.4 |
| 20260503013038 | 53 | 295 | 0.0 | 5.0 | 0.00 | 0.00 | 0.00 | 1 | 1012.5 |
| 20260503012538 | 53 | 307 | 0.0 | 4.0 | 0.00 | 0.00 | 0.00 | 1 | 1012.6 |
| 20260503012038 | 53 | 259 | 0.0 | 4.0 | 0.00 | 0.00 | 0.00 | 1 | 1012.7 |
| 20260503011533 | 53 | 283 | 0.0 | 5.0 | 0.00 | 0.00 | 0.00 | 1 | 1012.7 |
| 20260503011015 | 53 | 352 | 0.0 | 3.0 | 0.00 | 0.00 | 0.00 | 1 | 1012.8 |
| 20260503010513 | 53 | 56 | 0.0 | 3.0 | 0.00 | 0.00 | 0.00 | 1 | 1012.8 |
| 20260503010012 | 53 | 290 | 0.0 | 4.0 | 0.00 | 0.00 | 0.00 | 1 | 1012.9 |
| 20260503005511 | 54 | 304 | 0.0 | 9.0 | 0.00 | 0.00 | 0.00 | 1 | 1012.8 |
| 20260503005012 | 54 | 338 | 2.0 | 9.0 | 0.00 | 0.00 | 0.00 | 1 | 1012.9 |
| 20260503004507 | 54 | 347 | 0.0 | 5.0 | 0.00 | 0.00 | 0.00 | 1 | 1012.9 |
| 20260503004051 | 54 | 314 | 0.0 | 4.0 | 0.00 | 0.00 | 0.00 | 1 | 1012.9 |
| 20260503003548 | 54 | 15 | 0.0 | 5.0 | 0.00 | 0.00 | 0.00 | 1 | 1013.0 |
| 20260503003055 | 54 | 321 | 1.0 | 4.0 | 0.00 | 0.00 | 0.00 | 1 | 1013.0 |
| 20260503002546 | 54 | 29 | 0.0 | 3.0 | 0.00 | 0.00 | 0.00 | 1 | 1013.0 |
| 20260503002045 | 54 | 6 | 0.0 | 3.0 | 0.00 | 0.00 | 0.00 | 1 | 1012.9 |
| 20260503001603 | 54 | 305 | 0.0 | 4.0 | 0.00 | 0.00 | 0.00 | 1 | 1012.9 |
| 20260503001041 | 54 | 4 | 0.0 | 4.0 | 0.00 | 0.00 | 0.00 | 1 | 1013.0 |
| 20260503000540 | 54 | 231 | 0.0 | 3.0 | 0.00 | 0.00 | 0.00 | 1 | 1013.0 |
| 20260503000045 | 55 | 304 | 0.0 | 5.0 | 0.00 | 0.00 | 0.00 | 1 | 1013.1 |
| 20260502235537 | 55 | 34 | 1.0 | 6.0 | 0.00 | 0.00 | 0.00 | 1 | 1013.2 |
| 20260502235036 | 56 | 8 | 1.0 | 6.0 | 0.00 | 0.00 | 0.00 | 1 | 1013.2 |
| 20260502234538 | 56 | 328 | 1.0 | 5.0 | 0.00 | 0.00 | 0.00 | 1 | 1013.2 |
| 20260502234033 | 56 | 302 | 0.0 | 5.0 | 0.00 | 0.00 | 0.00 | 1 | 1013.3 |
| 20260502233531 | 56 | 253 | 0.0 | 5.0 | 0.00 | 0.00 | 0.00 | 1 | 1013.4 |
| 20260502233032 | 57 | 348 | 2.0 | 4.0 | 0.00 | 0.00 | 0.00 | 1 | 1013.5 |
| 20260502232528 | 57 | 62 | 0.0 | 6.0 | 0.00 | 0.00 | 0.00 | 1 | 1013.4 |
| 20260502232027 | 57 | 240 | 0.0 | 6.0 | 0.00 | 0.00 | 0.00 | 1 | 1013.6 |
| 20260502231026 | 58 | 340 | 0.0 | 4.0 | 0.00 | 0.00 | 0.00 | 1 | 1013.7 |
| 20260502230524 | 58 | 238 | 0.0 | 8.0 | 0.00 | 0.00 | 0.00 | 1 | 1013.8 |
| 20260502230031 | 58 | 273 | 0.0 | 4.0 | 0.00 | 0.00 | 0.00 | 1 | 1013.9 |
| 20260502225520 | 60 | 183 | 0.0 | 5.0 | 0.00 | 0.00 | 0.00 | 1 | 1014.0 |
| 20260502225023 | 60 | 26 | 1.0 | 5.0 | 0.00 | 0.00 | 0.00 | 1 | 1014.0 |
| 20260502224519 | 60 | 281 | 0.0 | 3.0 | 0.00 | 0.00 | 0.00 | 1 | 1014.1 |
| 20260502224023 | 60 | 259 | 0.0 | 4.0 | 0.00 | 0.00 | 0.00 | 1 | 1014.2 |
| 20260502223518 | 60 | 260 | 0.0 | 4.0 | 0.00 | 0.00 | 0.00 | 1 | 1014.4 |
| 20260502223017 | 60 | 356 | 0.0 | 4.0 | 0.00 | 0.00 | 0.00 | 1 | 1014.4 |
| 20260502222513 | 61 | 69 | 1.0 | 7.0 | 0.00 | 0.00 | 0.00 | 1 | 1014.5 |
| 20260502222012 | 61 | 257 | 1.0 | 7.0 | 0.00 | 0.00 | 0.00 | 1 | 1014.6 |
| 20260502221011 | 62 | 284 | 1.0 | 5.0 | 0.00 | 0.00 | 0.00 | 1 | 1014.7 |
| 20260502220510 | 62 | 44 | 2.0 | 5.0 | 0.00 | 0.00 | 0.00 | 1 | 1014.8 |
| 20260502220008 | 62 | 316 | 0.0 | 5.0 | 0.00 | 0.00 | 0.00 | 1 | 1014.8 |
| 20260502215512 | 62 | 308 | 0.0 | 5.0 | 0.00 | 0.00 | 0.00 | 1 | 1014.8 |
| 20260502215006 | 62 | 64 | 0.0 | 5.0 | 0.00 | 0.00 | 0.00 | 1 | 1014.8 |
| 20260502214504 | 62 | 264 | 0.0 | 9.0 | 0.00 | 0.00 | 0.00 | 1 | 1014.8 |
| 20260502214002 | 62 | 330 | 2.0 | 9.0 | 0.00 | 0.00 | 0.00 | 15 | 1014.9 |
| 20260502213501 | 63 | 291 | 0.0 | 5.0 | 0.00 | 0.00 | 0.00 | 1 | 1014.9 |
| 20260502213100 | 63 | 246 | 0.0 | 5.0 | 0.00 | 0.00 | 0.00 | 6 | 1014.9 |
| 20260502212600 | 63 | 127 | 0.0 | 3.0 | 0.00 | 0.00 | 0.00 | 4 | 1014.9 |
| 20260502212058 | 64 | 245 | 0.0 | 3.0 | 0.00 | 0.00 | 0.00 | 4 | 1014.9 |
| 20260502211700 | 63 | 310 | 0.0 | 4.0 | 0.00 | 0.00 | 0.00 | 1 | 1015.0 |
| 20260502211035 | 63 | 239 | 0.0 | 4.0 | 0.00 | 0.00 | 0.00 | 1 | 1015.1 |
| 20260502210532 | 62 | 305 | 0.0 | 5.0 | 0.00 | 0.00 | 0.00 | 1 | 1015.1 |
| 20260502210031 | 62 | 262 | 0.0 | 5.0 | 0.00 | 0.00 | 0.00 | 1 | 1015.1 |
| 20260502205530 | 62 | 82 | 0.0 | 4.0 | 0.00 | 0.00 | 0.00 | 1 | 1015.3 |
| 20260502205028 | 62 | 238 | 1.0 | 4.0 | 0.00 | 0.00 | 0.00 | 1 | 1015.3 |
| 20260502204530 | 62 | 229 | 1.0 | 4.0 | 0.00 | 0.00 | 0.00 | 1 | 1015.3 |
| 20260502204008 | 62 | 232 | 1.0 | 4.0 | 0.00 | 0.00 | 0.00 | 1 | 1015.4 |
| 20260502203505 | 62 | 236 | 1.0 | 5.0 | 0.00 | 0.00 | 0.00 | 1 | 1015.4 |
| 20260502203005 | 62 | 305 | 1.0 | 5.0 | 0.00 | 0.00 | 0.00 | 1 | 1015.5 |
| 20260502202504 | 61 | 259 | 0.0 | 2.0 | 0.00 | 0.00 | 0.00 | 1 | 1015.6 |
| 20260502202004 | 62 | 273 | 0.0 | 3.0 | 0.00 | 0.00 | 0.00 | 1 | 1015.7 |
| 20260502201613 | 62 | 255 | 0.0 | 3.0 | 0.00 | 0.00 | 0.00 | 1 | 1015.7 |
| 20260502201042 | 62 | 246 | 0.0 | 3.0 | 0.00 | 0.00 | 0.00 | 1 | 1015.7 |
| 20260502200542 | 61 | 271 | 0.0 | 4.0 | 0.00 | 0.00 | 0.00 | 1 | 1015.7 |
| 20260502200039 | 62 | 233 | 1.0 | 4.0 | 0.00 | 0.00 | 0.00 | 1 | 1015.7 |
| 20260502195537 | 63 | 269 | 0.0 | 5.0 | 0.00 | 0.00 | 0.00 | 4 | 1015.7 |
| 20260502195038 | 62 | 288 | 0.0 | 5.0 | 0.00 | 0.00 | 0.00 | 1 | 1015.8 |
| 20260502194537 | 62 | 248 | 0.0 | 3.0 | 0.00 | 0.00 | 0.00 | 1 | 1015.8 |
| 20260502194015 | 62 | 316 | 0.0 | 2.0 | 0.00 | 0.00 | 0.00 | 1 | 1015.9 |
| 20260502193515 | 61 | 308 | 0.0 | 4.0 | 0.00 | 0.00 | 0.00 | 1 | 1015.9 |
| 20260502193013 | 62 | 219 | 2.0 | 4.0 | 0.00 | 0.00 | 0.00 | 1 | 1015.9 |
| 20260502192512 | 61 | 205 | 0.0 | 2.0 | 0.00 | 0.00 | 0.00 | 1 | 1016.0 |
| 20260502192010 | 61 | 286 | 0.0 | 5.0 | 0.00 | 0.00 | 0.00 | 1 | 1015.9 |
| 20260502191508 | 61 | 345 | 0.0 | 5.0 | 0.00 | 0.00 | 0.00 | 1 | 1015.8 |
| 20260502191110 | 61 | 224 | 0.0 | 3.0 | 0.00 | 0.00 | 0.00 | 1 | 1015.8 |
| 20260502190548 | 60 | 217 | 0.0 | 5.0 | 0.00 | 0.00 | 0.00 | 1 | 1016.0 |
| 20260502190048 | 61 | 236 | 0.0 | 4.0 | 0.00 | 0.00 | 0.00 | 1 | 1016.0 |
| 20260502185545 | 60 | 298 | 0.0 | 3.0 | 0.00 | 0.00 | 0.00 | 1 | 1016.0 |
| 20260502185045 | 60 | 239 | 1.0 | 3.0 | 0.00 | 0.00 | 0.00 | 1 | 1016.0 |
| 20260502184558 | 59 | 248 | 0.0 | 3.0 | 0.00 | 0.00 | 0.00 | 1 | 1016.1 |
| 20260502184041 | 59 | 238 | 0.0 | 4.0 | 0.00 | 0.00 | 0.00 | 1 | 1016.1 |
| 20260502183522 | 60 | 238 | 1.0 | 4.0 | 0.00 | 0.00 | 0.00 | 1 | 1016.2 |
| 20260502183021 | 59 | 214 | 0.0 | 3.0 | 0.00 | 0.00 | 0.00 | 1 | 1016.2 |
| 20260502182519 | 58 | 252 | 0.0 | 2.0 | 0.00 | 0.00 | 0.00 | 1 | 1016.1 |
| 20260502182017 | 56 | 244 | 0.0 | 4.0 | 0.00 | 0.00 | 0.00 | 1 | 1016.2 |
| 20260502181518 | 55 | 85 | 0.0 | 4.0 | 0.00 | 0.00 | 0.00 | 1 | 1016.1 |
| 20260502181019 | 55 | 221 | 1.0 | 4.0 | 0.00 | 0.00 | 0.00 | 1 | 1016.2 |
| 20260502180558 | 54 | 233 | 0.0 | 1.0 | 0.00 | 0.00 | 0.00 | 1 | 1016.1 |
| 20260502170520 | 53 | 11 | 0.0 | 1.0 | 0.00 | 0.00 | 0.00 | 1 | 1016.7 |
| 20260502164021 | 53 | 22 | 0.0 | 1.0 | 0.00 | 0.00 | 0.00 | 1 | 1016.8 |
| 20260502163502 | 52 | 283 | 0.0 | 0.0 | 0.00 | 0.00 | 0.00 | 1 | 1016.8 |
| 20260502163001 | 52 | 301 | 0.0 | 0.0 | 0.00 | 0.00 | 0.00 | 1 | 1016.7 |
| 20260502162501 | 52 | 205 | 0.0 | 0.0 | 0.00 | 0.00 | 0.00 | 1 | 1016.8 |
| 20260502162003 | 52 | 53 | 0.0 | 1.0 | 0.00 | 0.00 | 0.00 | 1 | 1016.7 |
| 20260502161501 | 52 | 67 | 0.0 | 1.0 | 0.00 | 0.00 | 0.00 | 1 | 1016.8 |
| 20260502161003 | 52 | 86 | 0.0 | 2.0 | 0.00 | 0.00 | 0.00 | 1 | 1016.8 |
| 20260502160542 | 52 | 240 | 0.0 | 2.0 | 0.00 | 0.00 | 0.00 | 1 | 1016.8 |
| 20260502152023 | 51 | 233 | 0.0 | 0.0 | 0.00 | 0.00 | 0.00 | 1 | 1016.7 |
| 20260502151522 | 51 | 346 | 0.0 | 0.0 | 0.00 | 0.00 | 0.00 | 1 | 1016.7 |
| 20260502151025 | 51 | 346 | 0.0 | 0.0 | 0.00 | 0.00 | 0.00 | 1 | 1016.7 |
| 20260502150508 | 51 | 346 | 0.0 | 0.0 | 0.00 | 0.00 | 0.00 | 1 | 1016.7 |
| 20260502130555 | 0 | 0.0 | 0.0 | 0.00 | 0.00 | 0.00 | 1016.2 | ||
| 20260502123544 | 0 | 0.0 | 0.0 | 0.00 | 0.00 | 0.00 | 1016.3 | ||
| 20260502123057 | 0 | 0.0 | 0.0 | 0.00 | 0.00 | 0.00 | 1016.5 | ||
| 20260502122542 | 0 | 0.0 | 0.0 | 0.00 | 0.00 | 0.00 | 1016.5 | ||
| 20260502122043 | 0 | 0.0 | 0.0 | 0.00 | 0.00 | 0.00 | 1016.6 | ||
| 20260502121543 | 0 | 0.0 | 0.0 | 0.00 | 0.00 | 0.00 | 1016.5 | ||
| 20260502121043 | 0 | 0.0 | 0.0 | 0.00 | 0.00 | 0.00 | 1016.6 | ||
| 20260502120542 | 0 | 0.0 | 0.0 | 0.00 | 0.00 | 0.00 | 1016.6 | ||
| 20260502115541 | 0 | 0.0 | 0.0 | 0.00 | 0.00 | 0.00 | 1016.9 | ||
| 20260502115041 | 0 | 0.0 | 0.0 | 0.00 | 0.00 | 0.00 | 1016.9 | ||
| 20260502114545 | 0 | 0.0 | 0.0 | 0.00 | 0.00 | 0.00 | 1016.9 | ||
| 20260502114043 | 0 | 0.0 | 0.0 | 0.00 | 0.00 | 0.00 | 1017.1 | ||
| 20260502113541 | 0 | 0.0 | 0.0 | 0.00 | 0.00 | 0.00 | 1016.9 | ||
| 20260502113024 | 0 | 0.0 | 0.0 | 0.00 | 0.00 | 0.00 | 1016.8 | ||
| 20260502112523 | 0 | 0.0 | 0.0 | 0.00 | 0.00 | 0.00 | 1016.9 | ||
| 20260502112023 | 0 | 0.0 | 0.0 | 0.00 | 0.00 | 0.00 | 1016.8 | ||
| 20260502111523 | 0 | 0.0 | 0.0 | 0.00 | 0.00 | 0.00 | 1017.0 | ||
| 20260502111023 | 0 | 0.0 | 0.0 | 0.00 | 0.00 | 0.00 | 1017.0 | ||
| 20260502110523 | 0 | 0.0 | 0.0 | 0.00 | 0.00 | 0.00 | 1016.9 | ||
| 20260502110006 | 0 | 0.0 | 0.0 | 0.00 | 0.00 | 0.00 | 1016.9 | ||
| 20260502105509 | 0 | 0.0 | 0.0 | 0.00 | 0.00 | 0.00 | 1016.8 | ||
| 20260502105008 | 0 | 0.0 | 0.0 | 0.00 | 0.00 | 0.00 | 1016.9 | ||
| 20260502104506 | 0 | 0.0 | 0.0 | 0.00 | 0.00 | 0.00 | 1016.9 | ||
| 20260502104005 | 0 | 0.0 | 0.0 | 0.00 | 0.00 | 0.00 | 1017.0 | ||
| 20260502103505 | 0 | 0.0 | 0.0 | 0.00 | 0.00 | 0.00 | 1016.9 | ||
| 20260502103055 | 0 | 0.0 | 0.0 | 0.00 | 0.00 | 0.00 | 1016.9 | ||
| 20260502102550 | 0 | 0.0 | 0.0 | 0.00 | 0.00 | 0.00 | 1017.0 | ||
| 20260502102047 | 0 | 0.0 | 0.0 | 0.00 | 0.00 | 0.00 | 1017.0 | ||
| 20260502101609 | 0 | 0.0 | 0.0 | 0.00 | 0.00 | 0.00 | 1017.1 | ||
| 20260502101047 | 0 | 0.0 | 0.0 | 0.00 | 0.00 | 0.00 | 1017.1 | ||
| 20260502100547 | 0 | 0.0 | 0.0 | 0.00 | 0.00 | 0.00 | 1017.0 | ||
| 20260502091511 | 0 | 0.0 | 0.0 | 0.00 | 0.00 | 0.00 | 1017.1 | ||
| 20260502091010 | 0 | 0.0 | 0.0 | 0.00 | 0.00 | 0.00 | 1017.2 | ||
| 20260502090511 | 0 | 0.0 | 0.0 | 0.00 | 0.00 | 0.00 | 1017.1 | ||
| 20260502071043 | 0 | 0.0 | 0.0 | 0.00 | 0.00 | 0.00 | 1017.4 | ||
| 20260502070541 | 0 | 0.0 | 0.0 | 0.00 | 0.00 | 0.00 | 1017.4 | ||
| 20260502070031 | 0 | 0.0 | 0.0 | 0.00 | 0.00 | 0.00 | 1017.4 | ||
| 20260502065521 | 0 | 0.0 | 0.0 | 0.00 | 0.00 | 0.00 | 1017.3 | ||
| 20260502065019 | 0 | 0.0 | 0.0 | 0.00 | 0.00 | 0.00 | 1017.4 | ||
| 20260502064518 | 0 | 0.0 | 0.0 | 0.00 | 0.00 | 0.00 | 1017.4 | ||
| 20260502064017 | 0 | 0.0 | 0.0 | 0.00 | 0.00 | 0.00 | 1017.4 | ||
| 20260502063515 | 0 | 0.0 | 0.0 | 0.00 | 0.00 | 0.00 | 1017.3 | ||
| 20260502063057 | 0 | 0.0 | 0.0 | 0.00 | 0.00 | 0.00 | 1017.2 | ||
| 20260502062555 | 51 | 217 | 0.0 | 1.0 | 0.00 | 0.00 | 0.00 | 1 | 1017.2 |
| 20260502062054 | 51 | 217 | 0.0 | 1.0 | 0.00 | 0.00 | 0.00 | 1 | 1017.3 |
| 20260502061553 | 51 | 217 | 0.0 | 1.0 | 0.00 | 0.00 | 0.00 | 1 | 1017.3 |
| 20260502061051 | 52 | 217 | 0.0 | 1.0 | 0.00 | 0.00 | 0.00 | 1 | 1017.4 |
| 20260502060550 | 52 | 255 | 0.0 | 1.0 | 0.00 | 0.00 | 0.00 | 1 | 1017.4 |
| 20260502060033 | 52 | 290 | 0.0 | 0.0 | 0.00 | 0.00 | 0.00 | 1 | 1017.5 |
| 20260502055533 | 52 | 290 | 0.0 | 1.0 | 0.00 | 0.00 | 0.00 | 1 | 1017.4 |
| 20260502055030 | 52 | 278 | 0.0 | 2.0 | 0.00 | 0.00 | 0.00 | 1 | 1017.4 |
| 20260502054528 | 52 | 304 | 0.0 | 2.0 | 0.00 | 0.00 | 0.00 | 1 | 1017.4 |
| 20260502054026 | 52 | 243 | 0.0 | 1.0 | 0.00 | 0.00 | 0.00 | 1 | 1017.3 |
| 20260502053528 | 52 | 222 | 0.0 | 1.0 | 0.00 | 0.00 | 0.00 | 1 | 1017.4 |
| 20260502053006 | 52 | 85 | 0.0 | 1.0 | 0.00 | 0.00 | 0.00 | 1 | 1017.4 |
| 20260502052509 | 52 | 106 | 0.0 | 4.0 | 0.00 | 0.00 | 0.00 | 1 | 1017.3 |
| 20260502052004 | 52 | 310 | 0.0 | 5.0 | 0.00 | 0.00 | 0.00 | 1 | 1017.3 |
| 20260502051507 | 52 | 231 | 0.0 | 1.0 | 0.00 | 0.00 | 0.00 | 1 | 1017.3 |
| 20260502051002 | 52 | 285 | 0.0 | 2.0 | 0.00 | 0.00 | 0.00 | 1 | 1017.3 |
| 20260502050601 | 52 | 295 | 0.0 | 2.0 | 0.00 | 0.00 | 0.00 | 1 | 1017.4 |
| 20260502050059 | 52 | 273 | 0.0 | 1.0 | 0.00 | 0.00 | 0.00 | 1 | 1017.3 |
| 20260502045540 | 52 | 257 | 0.0 | 1.0 | 0.00 | 0.00 | 0.00 | 1 | 1017.4 |
| 20260502045039 | 52 | 236 | 0.0 | 1.0 | 0.00 | 0.00 | 0.00 | 1 | 1017.3 |
| 20260502044537 | 52 | 242 | 0.0 | 1.0 | 0.00 | 0.00 | 0.00 | 1 | 1017.4 |
| 20260502044037 | 52 | 288 | 0.0 | 2.0 | 0.00 | 0.00 | 0.00 | 1 | 1017.4 |
| 20260502043534 | 52 | 324 | 0.0 | 3.0 | 0.00 | 0.00 | 0.00 | 1 | 1017.4 |
| 20260502043034 | 52 | 81 | 0.0 | 0.0 | 0.00 | 0.00 | 0.00 | 1 | 1017.3 |
| 20260502042519 | 52 | 222 | 0.0 | 0.0 | 0.00 | 0.00 | 0.00 | 1 | 1017.3 |
| 20260502042018 | 52 | 295 | 0.0 | 1.0 | 0.00 | 0.00 | 0.00 | 1 | 1017.3 |
| 20260502041517 | 52 | 70 | 0.0 | 2.0 | 0.00 | 0.00 | 0.00 | 1 | 1017.2 |
| 20260502041015 | 52 | 267 | 0.0 | 3.0 | 0.00 | 0.00 | 0.00 | 1 | 1017.3 |
| 20260502040513 | 52 | 122 | 0.0 | 3.0 | 0.00 | 0.00 | 0.00 | 1 | 1017.1 |
| 20260502040017 | 52 | 238 | 0.0 | 1.0 | 0.00 | 0.00 | 0.00 | 1 | 1017.1 |
| 20260502035511 | 52 | 217 | 0.0 | 1.0 | 0.00 | 0.00 | 0.00 | 1 | 1017.0 |
| 20260502035011 | 52 | 266 | 0.0 | 1.0 | 0.00 | 0.00 | 0.00 | 1 | 1016.9 |
| 20260502034508 | 52 | 356 | 0.0 | 1.0 | 0.00 | 0.00 | 0.00 | 1 | 1016.8 |
| 20260502034008 | 52 | 249 | 0.0 | 1.0 | 0.00 | 0.00 | 0.00 | 1 | 1016.9 |
| 20260502033504 | 52 | 204 | 0.0 | 2.0 | 0.00 | 0.00 | 0.00 | 1 | 1016.9 |
| 20260502033005 | 52 | 278 | 0.0 | 2.0 | 0.00 | 0.00 | 0.00 | 1 | 1016.9 |